Weather History for Hawthorne, CA

Change the Weather History Date:

Thursday, March 13, 2014

  Actual Average Record
Temperature  
Mean Temperature 62 °F -  
Max Temperature 68 °F 64 °F 81 °F (1951)
Min Temperature 59 °F 50 °F 39 °F (1990)
Degree Days  
Heating Degree Days 2    
Growing Degree Days 12 (Base 50)    
Moisture  
Dew Point 49 °F    
Average Humidity 63    
Maximum Humidity 75    
Minimum Humidity 45    
Precipitation  
Precipitation 0.00 in - - ()
Sea Level Pressure  
Sea Level Pressure 29.96 in    
Wind  
Wind Speed 4 mph (South)    
Max Wind Speed 14 mph    
Max Gust Speed 25 mph    
Visibility 10 miles    
Events      
Averages and records for this station are not official NWS values.
T = Trace of Precipitation, MM = Missing Value Source: NWS Daily Summary

Daily Weather History Graph

Daily Weather History Graph

Search for Another Location

Airport:

Trip Planner

Search our weather history database for the weather conditions in past years. The results will help you decide how hot, cold, wet, or windy it might be!

Date:

Astronomy

Mar. 13, 2014 Rise Set
Actual Time 7:06 AM PDT 6:59 PM PDT
Civil Twilight 6:41 AM PDT 7:24 PM PDT
Nautical Twilight 6:12 AM PDT 7:53 PM PDT
Astronomical Twilight 5:43 AM PDT 8:22 PM PDT
Moon 4:35 PM PDT (3/13) 5:09 AM PDT (3/13)
Length of Visible Light 12h 43m
Length of Day
11h 53m
Waxing Gibbous, 92% of the Moon is Illuminated
Mar 13
Waxing Gibbous
Mar 16
Full
Mar 23
Last Quarter
Mar 30
New
Apr 7
First Quarter

Hourly Weather History & Observations

Time (PDT) Temp. Dew Point Humidity Pressure Visibility Wind Dir Wind Speed Gust Speed Precip Events Conditions
12:53 AM 60.1 °F 51.1 °F 72% 29.98 in 10.0 mi SE 4.6 mph - N/A   Overcast
1:53 AM 60.1 °F 50.0 °F 69% 29.98 in 10.0 mi ESE 3.5 mph - N/A   Overcast
2:53 AM 60.1 °F 50.0 °F 69% 29.96 in 10.0 mi ESE 3.5 mph - N/A   Overcast
3:53 AM 60.1 °F 50.0 °F 69% 29.94 in 10.0 mi Calm Calm - N/A   Overcast
4:53 AM 59.0 °F 50.0 °F 72% 29.95 in 10.0 mi SSE 3.5 mph - N/A   Overcast
5:53 AM 60.1 °F 48.9 °F 67% 29.95 in 10.0 mi ESE 3.5 mph - N/A   Mostly Cloudy
6:00 AM 60.8 °F 48.2 °F 63% 29.95 in 10.0 mi Calm Calm - N/A   Scattered Clouds
6:11 AM 60.8 °F 48.2 °F 63% 29.95 in 10.0 mi East 3.5 mph - N/A   Mostly Cloudy
6:38 AM 59.0 °F 48.2 °F 67% 29.95 in 10.0 mi Calm Calm - N/A   Scattered Clouds
6:53 AM 59.0 °F 50.0 °F 72% 29.96 in 10.0 mi Calm Calm - N/A   Scattered Clouds
7:03 AM 59.0 °F 48.2 °F 67% 29.95 in 10.0 mi East 3.5 mph - N/A   Mostly Cloudy
7:53 AM 60.1 °F 48.9 °F 67% 29.97 in 10.0 mi Calm Calm - N/A   Overcast
8:24 AM 60.8 °F 48.2 °F 63% 29.98 in 10.0 mi Calm Calm - N/A   Overcast
8:53 AM 60.1 °F 48.0 °F 64% 29.98 in 10.0 mi Calm Calm - N/A   Partly Cloudy
9:53 AM 62.1 °F 46.9 °F 58% 29.98 in 10.0 mi ESE 6.9 mph - N/A   Clear
10:53 AM 64.9 °F 45.0 °F 48% 29.98 in 10.0 mi Variable 4.6 mph - N/A   Clear
11:53 AM 66.9 °F 45.0 °F 45% 29.97 in 10.0 mi Calm Calm - N/A   Clear
12:53 PM 64.9 °F 48.0 °F 54% 29.95 in 10.0 mi West 8.1 mph - N/A   Clear
1:53 PM 66.9 °F 46.9 °F 49% 29.94 in 10.0 mi WSW 11.5 mph 25.3 mph N/A   Clear
2:53 PM 66.0 °F 46.0 °F 48% 29.93 in 10.0 mi West 10.4 mph - N/A   Clear
3:53 PM 64.9 °F 46.9 °F 52% 29.92 in 10.0 mi SW 11.5 mph - N/A   Clear
4:53 PM 64.9 °F 46.0 °F 50% 29.92 in 10.0 mi West 13.8 mph - N/A   Clear
5:53 PM 64.9 °F 48.9 °F 56% 29.93 in 10.0 mi West 9.2 mph - N/A   Clear
6:53 PM 62.1 °F 50.0 °F 65% 29.95 in 10.0 mi WNW 5.8 mph - N/A   Clear
7:53 PM 62.1 °F 51.1 °F 67% 29.97 in 10.0 mi WNW 4.6 mph - N/A   Clear
8:53 PM 61.0 °F 51.1 °F 70% 29.99 in 10.0 mi Calm Calm - N/A   Clear
9:53 PM 60.1 °F 51.1 °F 72% 30.01 in 10.0 mi Calm Calm - N/A   Clear
10:53 PM 60.1 °F 51.1 °F 72% 30.03 in 10.0 mi Calm Calm - N/A   Clear
11:53 PM 59.0 °F 51.1 °F 75% 30.02 in 10.0 mi Calm Calm - N/A   Clear